TimeCST,TemperatureF,Dew PointF,Humidity,Sea Level PressureIn,VisibilityMPH,Wind Direction,Wind SpeedMPH,Gust SpeedMPH,PrecipitationIn,Events,Conditions,WindDirDegrees,DateUTC
12:15 AM,41.0,32.0,70,29.42,10.0,SW,21.9,25.3,N/A,,Overcast,230,2013-02-11 06:15:00
12:35 AM,39.2,32.0,75,29.42,10.0,SW,11.5,24.2,N/A,,Overcast,220,2013-02-11 06:35:00
12:55 AM,39.2,32.0,75,29.42,10.0,SW,24.2,31.1,N/A,,Overcast,230,2013-02-11 06:55:00
1:15 AM,37.4,30.2,75,29.42,10.0,SW,23.0,34.5,N/A,,Overcast,230,2013-02-11 07:15:00
1:35 AM,37.4,30.2,75,29.43,10.0,SW,23.0,38.0,N/A,,Overcast,230,2013-02-11 07:35:00
1:55 AM,35.6,30.2,81,29.43,10.0,SW,23.0,33.4,N/A,,Overcast,230,2013-02-11 07:55:00
2:15 AM,35.6,30.2,81,29.43,10.0,SW,21.9,33.4,N/A,,Overcast,230,2013-02-11 08:15:00
2:35 AM,35.6,30.2,81,29.43,10.0,SW,23.0,33.4,N/A,,Overcast,220,2013-02-11 08:35:00
2:55 AM,35.6,30.2,81,29.43,10.0,SW,24.2,34.5,N/A,,Overcast,230,2013-02-11 08:55:00
3:15 AM,33.8,28.4,81,29.43,10.0,SW,19.6,39.1,N/A,,Overcast,230,2013-02-11 09:15:00
3:35 AM,33.8,28.4,81,29.43,10.0,SW,19.6,27.6,N/A,,Overcast,230,2013-02-11 09:35:00
3:55 AM,33.8,28.4,81,29.43,10.0,SW,18.4,33.4,N/A,,Overcast,230,2013-02-11 09:55:00
4:15 AM,33.8,28.4,81,29.44,10.0,WSW,23.0,38.0,N/A,,Overcast,240,2013-02-11 10:15:00
4:35 AM,33.8,28.4,81,29.44,10.0,SW,19.6,38.0,N/A,,Overcast,230,2013-02-11 10:35:00
4:55 AM,33.8,28.4,81,29.44,10.0,WSW,19.6,25.3,N/A,,Overcast,240,2013-02-11 10:55:00
5:15 AM,32.0,28.4,87,29.44,10.0,SW,19.6,27.6,N/A,,Overcast,220,2013-02-11 11:15:00
5:55 AM,32.0,26.6,80,29.46,10.0,WSW,25.3,38.0,N/A,,Overcast,240,2013-02-11 11:55:00
6:45 AM,32.0,26.6,80,29.47,7.0,WSW,23.0,39.1,N/A,,Overcast,240,2013-02-11 12:45:00
7:45 AM,32.0,26.6,80,29.49,10.0,WSW,23.0,33.4,N/A,,Overcast,250,2013-02-11 13:45:00
8:45 AM,32.0,26.6,80,29.51,7.0,WSW,23.0,31.1,N/A,Snow,Light Snow,250,2013-02-11 14:45:00
9:45 AM,32.0,26.6,80,29.54,7.0,WSW,17.3,34.5,N/A,Snow,Light Snow,250,2013-02-11 15:45:00
10:45 AM,32.0,30.2,93,29.53,10.0,WSW,27.6,35.7,N/A,,Overcast,250,2013-02-11 16:45:00
11:45 AM,33.8,26.6,75,29.61,10.0,WSW,18.4,29.9,N/A,,Overcast,250,2013-02-11 17:45:00
12:45 PM,33.8,28.4,81,29.64,10.0,WSW,19.6,27.6,N/A,,Overcast,250,2013-02-11 18:45:00
1:45 PM,32.0,26.6,80,29.68,10.0,West,19.6,26.5,N/A,,Overcast,260,2013-02-11 19:45:00
2:45 PM,30.2,24.8,80,29.72,10.0,West,19.6,33.4,N/A,,Overcast,260,2013-02-11 20:45:00
3:45 PM,30.2,23.0,75,29.76,10.0,West,24.2,34.5,N/A,Snow,Light Snow,270,2013-02-11 21:45:00
4:45 PM,30.2,21.2,69,29.80,10.0,West,17.3,31.1,N/A,,Overcast,270,2013-02-11 22:45:00
5:45 PM,28.4,21.2,74,29.85,10.0,West,20.7,31.1,N/A,,Overcast,280,2013-02-11 23:45:00
6:50 PM,28.4,21.2,74,29.88,10.0,West,15.0,26.5,N/A,,Overcast,270,2013-02-12 00:50:00
7:45 PM,28.4,19.4,69,29.89,10.0,West,11.5,23.0,N/A,,Overcast,270,2013-02-12 01:45:00
8:15 PM,28.4,21.2,74,29.90,10.0,West,16.1,24.2,N/A,,Overcast,270,2013-02-12 02:15:00
8:35 PM,28.4,21.2,74,29.91,10.0,West,15.0,20.7,N/A,,Overcast,280,2013-02-12 02:35:00
8:45 PM,28.4,19.4,69,29.91,10.0,West,11.5,20.7,N/A,,Overcast,270,2013-02-12 02:45:00
8:55 PM,28.4,21.2,74,29.92,10.0,West,16.1,23.0,N/A,,Overcast,270,2013-02-12 02:55:00
9:15 PM,28.4,21.2,74,29.92,10.0,West,19.6,24.2,N/A,,Overcast,270,2013-02-12 03:15:00
9:35 PM,28.4,21.2,74,29.92,10.0,West,17.3,23.0,N/A,,Overcast,280,2013-02-12 03:35:00
9:55 PM,28.4,21.2,74,29.93,10.0,West,17.3,23.0,N/A,,Overcast,280,2013-02-12 03:55:00
10:15 PM,28.4,21.2,74,29.93,10.0,West,16.1,24.2,N/A,,Overcast,270,2013-02-12 04:15:00
10:35 PM,28.4,21.2,74,29.93,10.0,West,15.0,-,N/A,,Overcast,280,2013-02-12 04:35:00
10:55 PM,28.4,21.2,74,29.94,10.0,West,16.1,21.9,N/A,,Overcast,270,2013-02-12 04:55:00
11:15 PM,28.4,21.2,74,29.95,10.0,West,12.7,18.4,N/A,,Overcast,270,2013-02-12 05:15:00
11:35 PM,28.4,21.2,74,29.95,10.0,West,10.4,-,N/A,,Overcast,270,2013-02-12 05:35:00
11:55 PM,28.4,21.2,74,29.97,10.0,West,10.4,19.6,N/A,,Overcast,260,2013-02-12 05:55:00